Location: Newark
(7.0858°N, 171.3717°E)
Time: 05:09:00
(UTC+00:00)

Vanguard 2 - Pass Details

Date: 04 December 2020
Orbit: 553 x 2937 km, 32.9° (Epoch: 26 January)

Event Time Altitude Azimuth Distance (km) Brightness Sun altitude
Rises 15:00:13 0° 219° (SW) 6,727 12.2 -49.6°
Reaches altitude 10° 15:05:13 10° 212° (SSW) 5,765 11.9 -48.5°
Maximum altitude 15:21:15 40° 148° (SSE) 3,503 10.9 -44.9°
Drops below altitude 10° 15:33:42 10° 84° (E) 4,570 12.0 -42.1°
Sets 15:37:04 0° 76° (ENE) 5,269 12.4 -41.4°
